COSMOS 2206 (GLONASS)

Satellite information

Favourite Embed

Satellite Type and Status

PAYLOADIN ORBIT

Key statistics

Satellite COSMOS 2206 (GLONASS) at a glance.

Uptime

12190

Days in orbit

Revolutions

≈ 2.1

Per day

Orbit

MEO

Medium Earth Orbit

Inclination

64.3

Latest

Satellite identification and parameters

Extended collection of information and parameters for COSMOS 2206 (GLONASS).

Object identification

Identified? True

Debris? False

Object name: COSMOS 2206 (GLONASS)

International designator: 1992-047A

Object number (NORAD): 22056

Object ID (CCSDS): 22056

Country: COMMONWEALTH OF INDEPENDENT STATES (CIS)

Current information (Y/N): Y

RCS size: LARGE

Orbital parameters

Period: 675.716 minutes

Inclination: 64.267 deg

SMA: 25507.594 km

Apoapsis: 19156.368 km

Periapsis: 19102.55 km

RAAN: 308.6628 deg

Eccentricy: 0.00105494

Argument of periapsis: 248.7128 deg

Mean anomaly: 292.6009 deg

Mean motion: 2.13107398 rev/day

Mean motion (dot): -0.00000064 rev/day2

B* drag term: 0.0 1/REarth

Two-line elements (TLE)

Creation date: Dec. 13, 2025, 5:47 p.m.

Reference frame: TEME

Reference center: EARTH

Epoch: Dec. 13, 2025, midnight UTC

TLE line 0: 0 COSMOS 2206 (GLONASS)

TLE line 1: 1 22056U 92047A 25347.00022042 -.00000064 00000-0 00000-0 0 9999

TLE line 2: 2 22056 64.2670 308.6628 0010549 248.7128 292.6009 2.13107398259655

Live tracking on map

Real-time ground track for satellite COSMOS 2206 (GLONASS).

In-orbit conjunctions

There are no conjunctions computed for COSMOS 2206 (GLONASS), at the moment. Check back to stay up to date, as we update our databases every day.

Go to all conjunctions

Associated space launch

GLONASS navigation satellites

COSMOS 2206 (GLONASS) was lifted into orbit during the mission ‘Proton | Uragan 48 to 50’, on board a Proton space rocket.

The launch took place on July 30, 1992, 1:59 a.m. from 81/23 (81L).

For more information about the launch, click the button.

Launch to space Proton | Uragan 48 to 50
Proton | Uragan 48 to 50

Agency: N/A

Status: Launch Successful

Launch date: July 30, 1992, 1:59 a.m. UTC

Rocket: Proton

Launch pad: 81/23 (81L)

Location: Baikonur Cosmodrome, Republic of Kazakhstan

...

Latest news about this satellite

There are no fresh news available about this satellite. Check back as we update our databases every day.


Newsletter sign-up

Weekly statistics, charts and insights to help you stay on top of the space industry.